[[{"header":{"parameterUnit":"m.s-1","parameterCategory":1,"la1":30.2991,"la2":30.254,"lo1":-89.0895,"lo2":-89.0444,"dy":0.0017,"dx":0.0017,"nx":28,"ny":28,"refTime":"2024-02-28T09:00:00:Z","depth":0,"parameterNumber":2,"parameterNumberName":"U-component_of_WINDS"},"data":[0,0,0,0,0,0,0,0,0,0,0,0,0,0,0,0,0,0,0,0,0,0,0,0,0,0,0,0,0,0,0,0,0,0,0,0,0,0,0,0,0,0,0,0,0,0,0,0,0,0,0,0,0,0,0,0,0,0,-5.7484,-5.7485,0,-5.7538,-5.7539,-5.7539,-5.7405,-5.7401,-5.7397,-5.7392,-5.7448,-5.7454,-5.7459,0,0,0,0,0,0,0,0,0,0,0,0,0,-5.7265,-5.727,-5.7484,-5.7485,-5.7486,-5.7538,-5.7539,-5.7539,-5.7406,-5.7401,-5.7395,-5.7391,-5.7447,-5.7453,-5.746,0,0,0,0,0,0,0,0,0,0,0,0,0,-5.7344,-5.7271,-5.7484,-5.7425,-5.742,-5.7538,-5.7539,-5.754,-5.7407,-5.74,-5.7394,-5.7388,-5.7445,-5.7452,-5.746,-5.7638,0,0,-5.7485,-5.7489,0,0,0,0,0,0,0,0,-5.7339,-5.7352,-5.7433,-5.7429,-5.7424,-5.7458,-5.7482,-5.7573,-5.7408,-5.7412,-5.7392,-5.7385,-5.7457,-5.7464,-5.7488,-5.764,-5.7643,-5.7486,-5.7491,-5.7495,-5.7497,0,0,0,0,0,0,0,-5.7334,-5.7349,-5.7505,-5.7434,-5.7429,-5.7396,-5.74,-5.7498,-5.7469,-5.7411,-5.7402,-5.741,-5.7453,-5.748,-5.7488,-5.7644,-5.7486,-5.7493,-5.7498,-5.7501,-5.7944,-5.795,0,0,0,0,0,0,-5.7336,-5.7345,-5.7504,-5.7507,-5.7365,-5.7405,-5.741,-5.7454,-5.7468,-5.7464,-5.7415,-5.7403,-5.7469,-5.7479,-5.7489,-5.7698,-5.7494,-5.7502,-5.7507,-5.7937,-5.7945,-5.7953,0,0,0,0,0,0,-5.7332,-5.7352,-5.7502,-5.7424,-5.744,-5.7415,-5.7466,-5.7458,-5.7485,-5.7471,-5.7465,-5.7448,-5.7465,-5.7478,-5.7602,-5.7698,-5.7506,-5.7513,-5.7929,-5.794,-5.7949,-5.8117,0,0,0,0,0,0,-5.7326,-5.7351,-5.7419,-5.7426,-5.7445,-5.7614,-5.7472,-5.7464,-5.7499,-5.7484,-5.75,-5.7497,-5.7461,-5.759,-5.761,-5.7706,-5.752,-5.792,-5.7934,-5.7946,-5.8103,-5.8132,-5.8157,0,0,0,0,0,-5.7319,-5.7464,-5.7423,-5.7443,-5.7529,-5.762,-5.763,-5.7586,-5.7508,-5.7575,-5.7566,-5.7496,-5.7684,-5.7604,-5.7625,-5.7725,-5.7914,-5.793,-5.7945,-5.8091,-5.8126,-5.8156,0,0,0,0,0,0,-5.7469,-5.7464,-5.7418,-5.757,-5.7596,-5.7597,-5.7681,-5.7625,-5.7674,-5.7658,-5.76,-5.7605,-5.774,-5.7744,-5.7655,-5.7897,-5.7786,-5.7806,-5.789,-5.7923,-5.795,-5.7946,-5.7526,0,0,0,0,0,-5.752,-5.7594,-5.7585,-5.772,-5.7735,-5.7706,-5.7744,-5.7707,-5.7732,-5.7743,-5.7743,-5.777,-5.7834,-5.7879,-5.7938,-5.8102,-5.8104,-5.8181,-5.8208,-5.823,-5.8249,-5.8336,-5.8371,-5.8004,-5.8003,-5.8003,0,0,-5.7625,-5.7631,-5.7682,-5.775,-5.7766,-5.7845,-5.7717,-5.7805,-5.7862,-5.7756,-5.7873,-5.7874,-5.79,-5.8045,-5.8109,-5.8053,-5.835,-5.825,-5.8268,-5.8274,-5.8356,-5.8391,-5.8421,-5.8014,-5.8012,-5.801,0,0,-5.7858,-5.787,-5.7984,-5.8002,-5.8028,-5.8007,-5.8034,-5.8043,-5.804,-5.8156,-5.8078,-5.8145,-5.8258,-5.828,-5.8306,-5.8545,-5.8484,-5.8566,-5.8708,-5.8793,-5.8822,-5.8848,-5.8934,-5.8965,-5.8584,-5.8585,-5.8585,0,-5.7986,-5.8101,-5.8049,-5.8143,-5.8175,-5.8082,-5.8196,-5.8216,-5.8261,-5.8285,-5.8221,-5.8361,-5.8372,-5.8521,-5.8579,-5.8603,-5.8632,-5.8565,-5.8822,-5.8847,-5.887,-5.8951,-5.8984,-5.8595,-5.8594,-5.8593,-5.8592,0,-5.8258,-5.8338,-5.8427,-5.8472,-5.8513,-5.8617,-5.8581,-5.8629,-5.8588,-5.8574,-5.8694,-5.8703,-5.8762,-5.8794,-5.8756,-5.8938,-5.8903,-5.8832,-5.8719,-5.8916,-5.8992,-5.9022,-5.8609,-5.8606,-5.8603,-5.86,0,0,-5.8589,-5.8602,-5.8635,-5.8654,-5.8675,-5.8736,-5.8835,-5.8892,-5.8936,-5.8968,-5.905,-5.9147,-5.9081,-5.9111,-5.9073,-5.9149,-5.9338,-5.9068,-5.9068,-5.9119,-5.954,-5.9595,-5.9632,-5.9296,-5.9302,-5.9306,-5.9538,0,-5.8819,-5.8989,-5.8945,-5.9114,-5.9188,-5.91,-5.9186,-5.9208,-5.9197,-5.9258,-5.9245,-5.9315,-5.9223,-5.924,-5.931,-5.93,-5.9422,-5.9283,-5.9373,-5.9376,-5.937,-5.9671,-5.9729,-5.9947,-5.9567,-5.9572,-5.9576,0,-5.9111,-5.9155,-5.9332,-5.934,-5.9369,-5.9448,-5.9496,-5.9556,-5.9578,-5.9565,-5.9598,-5.9545,-5.9642,-5.9527,-5.9661,-5.9567,-5.96,-5.9601,-5.9608,-5.9616,-5.9489,-5.9688,-6.0016,-6.0049,-5.9622,-5.9618,-5.9615,0,-5.9336,-5.9439,-5.9558,-5.9577,-5.9589,-5.9646,-5.9654,-5.967,-5.9707,-5.9749,-5.9773,-5.9826,-5.9856,-5.9898,-5.9861,-5.978,-6.0,-5.9882,-5.9992,-5.9994,-6.0044,-6.0042,-6.0383,-6.0064,-6.0064,-6.0063,-6.0062,0,-5.9599,-5.9711,-5.9659,-5.9733,-5.9856,-5.9802,-5.9925,-5.9922,-5.9938,-6.0009,-5.9935,-6.0003,-5.9949,-6.0013,-5.9984,-6.0099,-6.0113,-6.0105,-6.0096,-6.0112,-6.0114,-6.0135,-6.0119,-6.0071,-6.007,-6.0068,-6.0066,0,-5.9872,-5.9842,-5.9966,-5.9966,-5.9969,-6.006,-6.006,-6.0128,-6.011,-6.0202,-6.022,-6.0193,-6.0264,-6.023,-6.0305,-6.0285,-6.0434,-6.0404,-6.0427,-6.0419,-6.0532,-6.0522,-6.09,-6.0947,-6.0597,-6.06,-6.0603,0,-6.0043,-6.0127,-6.0136,-6.0178,-6.0191,-6.026,-6.0297,-6.0247,-6.0289,-6.0321,-6.0385,-6.0449,-6.0499,-6.0616,-6.0604,-6.066,-6.0631,-6.076,-6.064,-6.0653,-6.0635,-6.0631,-6.0639,-6.0785,-6.0789,-6.0792,-6.0795,0,-6.0349,-6.0329,-6.0386,-6.0438,-6.0484,-6.0522,-6.0554,-6.0593,-6.0544,-6.0595,-6.0666,-6.0704,-6.078,-6.0845,-6.0893,-6.09,-6.0841,-6.0832,-6.0861,-6.088,-6.089,-6.0887,-6.0494,-6.0825,-6.0822,-6.0819,-6.0818,-6.0817,-6.0577,-6.0647,-6.0665,-6.073,-6.0748,-6.078,-6.0843,-6.0834,-6.0892,-6.095,-6.0916,-6.1,-6.1019,-6.1079,-6.1094,-6.1159,-6.1108,-6.1149,-6.116,-6.1171,-6.1187,-6.0878,-6.1167,-6.1166,-6.1165,-6.1165,-6.1164,0,-6.088,-6.0886,-6.0947,-6.0994,-6.1045,-6.0982,-6.1014,-6.1061,-6.1136,-6.1159,-6.1208,-6.129,-6.1352,-6.1344,-6.1401,-6.1454,-6.1428,-6.1471,-6.1467,-6.147,-6.1228,-6.1198,-6.1491,-6.1491,-6.1491,-6.1491,-6.1491,-6.1491,-6.1044,-6.116,-6.1143,-6.1267,-6.1272,-6.1353,-6.1377,-6.1405,-6.1423,-6.1518,-6.1569,-6.1563,-6.1573,-6.163,-6.1684,-6.168,-6.1705,-6.1759,-6.1745,-6.152,-6.1487,-6.1456,-6.1428,-6.1764,-6.1765,-6.1981,-6.1983,-6.1985]},{"header":{"parameterUnit":"m.s-1","parameterCategory":1,"la1":30.2991,"la2":30.254,"lo1":-89.0895,"lo2":-89.0444,"dy":0.0017,"dx":0.0017,"nx":28,"ny":28,"refTime":"2024-02-28T09:00:00:Z","depth":0,"parameterNumber":3,"parameterNumberName":"V-component_of_WINDS"},"data":[0,0,0,0,0,0,0,0,0,0,0,0,0,0,0,0,0,0,0,0,0,0,0,0,0,0,0,0,0,0,0,0,0,0,0,0,0,0,0,0,0,0,0,0,0,0,0,0,0,0,0,0,0,0,0,0,0,0,-4.9735,-4.9735,0,-4.9778,-4.9779,-4.9779,-4.9721,-4.9719,-4.9717,-4.9715,-4.9757,-4.976,-4.9763,0,0,0,0,0,0,0,0,0,0,0,0,0,-4.9598,-4.9601,-4.9735,-4.9735,-4.9736,-4.9778,-4.9779,-4.9779,-4.9721,-4.9719,-4.9716,-4.9714,-4.9756,-4.976,-4.9763,0,0,0,0,0,0,0,0,0,0,0,0,0,-4.9651,-4.9602,-4.9735,-4.9712,-4.9711,-4.9778,-4.9779,-4.978,-4.9722,-4.9719,-4.9716,-4.9713,-4.9755,-4.9759,-4.9764,-4.9855,0,0,-4.9778,-4.978,0,0,0,0,0,0,0,0,-4.9648,-4.9656,-4.9715,-4.9714,-4.9712,-4.9741,-4.9746,-4.9805,-4.9723,-4.9718,-4.9715,-4.9711,-4.9754,-4.9759,-4.9774,-4.9857,-4.9859,-4.9778,-4.9781,-4.9783,-4.9785,0,0,0,0,0,0,0,-4.9645,-4.9654,-4.9752,-4.9716,-4.9714,-4.9699,-4.9703,-4.9757,-4.9753,-4.9718,-4.9714,-4.972,-4.9753,-4.9769,-4.9774,-4.986,-4.9778,-4.9782,-4.9785,-4.9787,-5.0018,-5.0021,0,0,0,0,0,0,-4.9644,-4.9651,-4.9751,-4.9753,-4.9672,-4.9704,-4.9708,-4.9735,-4.9752,-4.9752,-4.9722,-4.9717,-4.9763,-4.9769,-4.9775,-4.9882,-4.9783,-4.9787,-4.979,-5.0015,-5.0019,-5.0023,0,0,0,0,0,0,-4.9641,-4.9654,-4.9749,-4.9701,-4.9712,-4.9709,-4.974,-4.9737,-4.9754,-4.9756,-4.9754,-4.974,-4.9761,-4.9769,-4.9835,-4.9883,-4.979,-4.9794,-5.0011,-5.0016,-5.0021,-5.0098,0,0,0,0,0,0,-4.9638,-4.9653,-4.9689,-4.9703,-4.9715,-4.981,-4.9743,-4.9741,-4.9762,-4.9755,-4.9772,-4.9772,-4.9759,-4.9829,-4.984,-4.9888,-4.9797,-5.0007,-5.0013,-5.0019,-5.0091,-5.0105,-5.0117,0,0,0,0,0,-4.9633,-4.9708,-4.9691,-4.9703,-4.976,-4.9812,-4.9819,-4.9804,-4.9766,-4.9801,-4.9802,-4.9771,-4.9876,-4.9836,-4.9848,-4.9898,-5.0003,-5.0011,-5.0019,-5.0085,-5.0102,-5.0116,0,0,0,0,0,0,-4.97,-4.971,-4.969,-4.9773,-4.9792,-4.9803,-4.9846,-4.9822,-4.9853,-4.9845,-4.9823,-4.9827,-4.9899,-4.9905,-4.986,-4.9986,-4.9933,-4.9944,-4.998,-4.9996,-5.0008,-5.0005,-4.9801,0,0,0,0,0,-4.9724,-4.9767,-4.9773,-4.9845,-4.9856,-4.985,-4.9872,-4.9858,-4.9877,-4.9885,-4.9891,-4.991,-4.9946,-4.9971,-5.0006,-5.0091,-5.0093,-5.0131,-5.0144,-5.0155,-5.0164,-5.0208,-5.0225,-5.0047,-5.0047,-5.0047,0,0,-4.9774,-4.9785,-4.9814,-4.9859,-4.9872,-4.9916,-4.9857,-4.9906,-4.9938,-4.9892,-4.9955,-4.996,-4.998,-5.0056,-5.009,-5.0063,-5.0213,-5.0164,-5.0173,-5.0176,-5.0218,-5.0234,-5.0249,-5.0053,-5.0052,-5.0051,0,0,-4.9889,-4.9902,-4.9963,-4.9977,-4.9999,-4.9994,-5.0008,-5.0022,-5.0024,-5.0087,-5.0053,-5.009,-5.0155,-5.017,-5.0186,-5.0304,-5.0276,-5.0316,-5.0383,-5.0426,-5.044,-5.0453,-5.0494,-5.0509,-5.0325,-5.0325,-5.0325,0,-4.9949,-5.0015,-4.9997,-5.0048,-5.0068,-5.0029,-5.009,-5.0104,-5.0136,-5.015,-5.012,-5.0199,-5.021,-5.0288,-5.0317,-5.0332,-5.0346,-5.0314,-5.044,-5.0452,-5.0463,-5.0502,-5.0518,-5.033,-5.0329,-5.0329,-5.0328,0,-5.0087,-5.0133,-5.0179,-5.021,-5.0236,-5.0291,-5.0281,-5.0308,-5.0292,-5.029,-5.0353,-5.0364,-5.04,-5.0417,-5.0402,-5.0493,-5.0476,-5.0444,-5.039,-5.0485,-5.0521,-5.0536,-5.0336,-5.0335,-5.0333,-5.0332,0,0,-5.0245,-5.0265,-5.0283,-5.0296,-5.0316,-5.035,-5.0403,-5.0438,-5.0462,-5.0484,-5.0527,-5.0582,-5.0552,-5.057,-5.0555,-5.0594,-5.0686,-5.0556,-5.0556,-5.0579,-5.0786,-5.081,-5.0828,-5.0667,-5.067,-5.0672,-5.0784,0,-5.0359,-5.0452,-5.0437,-5.0526,-5.0568,-5.053,-5.0576,-5.0593,-5.0592,-5.0626,-5.0624,-5.0663,-5.062,-5.0631,-5.0667,-5.0667,-5.0727,-5.0659,-5.0706,-5.0708,-5.0702,-5.0847,-5.0873,-5.0978,-5.0798,-5.08,-5.0802,0,-5.0505,-5.0532,-5.0626,-5.0638,-5.0655,-5.0697,-5.0727,-5.076,-5.0778,-5.0774,-5.0794,-5.0772,-5.0823,-5.0769,-5.0839,-5.0793,-5.0811,-5.0814,-5.0818,-5.0821,-5.0761,-5.0854,-5.1011,-5.1027,-5.0825,-5.0823,-5.0821,0,-5.061,-5.0671,-5.0734,-5.0747,-5.0763,-5.0793,-5.0801,-5.0815,-5.0836,-5.0862,-5.0876,-5.0907,-5.0924,-5.0948,-5.0935,-5.0897,-5.1007,-5.0951,-5.1004,-5.1005,-5.1029,-5.1028,-5.1191,-5.1042,-5.1042,-5.1041,-5.1041,0,-5.0738,-5.0797,-5.0782,-5.0821,-5.0885,-5.0866,-5.093,-5.0933,-5.0946,-5.0984,-5.0953,-5.0989,-5.0969,-5.1004,-5.0993,-5.1052,-5.106,-5.1058,-5.1054,-5.1061,-5.1061,-5.1072,-5.1064,-5.1045,-5.1045,-5.1044,-5.1043,0,-5.0867,-5.0859,-5.0926,-5.0935,-5.0939,-5.0986,-5.0993,-5.1029,-5.1025,-5.1074,-5.1084,-5.1078,-5.1117,-5.1106,-5.1147,-5.114,-5.1215,-5.1202,-5.1209,-5.1206,-5.1259,-5.1254,-5.1435,-5.1457,-5.1294,-5.1296,-5.1297,0,-5.0949,-5.0994,-5.1008,-5.1031,-5.1042,-5.108,-5.1102,-5.1084,-5.1108,-5.113,-5.1163,-5.1199,-5.1227,-5.129,-5.1289,-5.132,-5.1308,-5.1369,-5.1312,-5.1317,-5.1308,-5.1305,-5.1309,-5.138,-5.1382,-5.1384,-5.1385,0,-5.1096,-5.109,-5.1123,-5.1154,-5.1181,-5.1205,-5.1225,-5.1246,-5.123,-5.1258,-5.1297,-5.1319,-5.1361,-5.1397,-5.1425,-5.1432,-5.1406,-5.1403,-5.1416,-5.1423,-5.1425,-5.1424,-5.1239,-5.1399,-5.1397,-5.1396,-5.1396,-5.1395,-5.1204,-5.1241,-5.1256,-5.1293,-5.1307,-5.1327,-5.1361,-5.1361,-5.1394,-5.1428,-5.1415,-5.146,-5.1474,-5.151,-5.152,-5.1554,-5.153,-5.1551,-5.1556,-5.1561,-5.1567,-5.142,-5.1559,-5.1559,-5.1558,-5.1558,-5.1558,0,-5.1348,-5.1356,-5.1391,-5.1421,-5.145,-5.1423,-5.1444,-5.1469,-5.151,-5.1525,-5.1553,-5.1598,-5.1632,-5.1633,-5.1665,-5.1692,-5.168,-5.17,-5.1698,-5.17,-5.1587,-5.1571,-5.1709,-5.1709,-5.1709,-5.1709,-5.1709,-5.1709,-5.1427,-5.1488,-5.1483,-5.155,-5.1557,-5.1602,-5.1616,-5.1633,-5.1646,-5.1697,-5.1725,-5.1726,-5.1736,-5.1767,-5.1797,-5.1796,-5.1809,-5.1834,-5.1829,-5.1723,-5.1708,-5.1694,-5.1679,-5.1837,-5.1837,-5.1938,-5.1939,-5.194]}]]